Regional Weather Roundup
Issued by NWS

Home | Current Version | Previous Version | Text Only | Print | Product List | Glossary Off
Versions: 1 2 3 4 5 6 7 8 9 10 11 12 13 14 15 16 17 18 19 20 21 22 23 24 25 26 27 28 29 30 31 32 33 34 35 36 37 38 39 40 41 42 43 44 45 46 47 48 49 50

000
ASUS43 KMKX 302300
RWRWI

WISCONSIN REGIONAL WEATHER ROUNDUP
NATIONAL WEATHER SERVICE MILWAUKEE/SULLIVAN WI
600 PM CDT SUN AUG 30 2015

NOTE: "FAIR" INDICATES FEW OR NO CLOUDS BELOW 12,000 FEET WITH NO
SIGNIFICANT WEATHER AND/OR OBSTRUCTIONS TO VISIBILITY.

WIZ001-002-006>008-014>016-023>028-310000-
NORTHWEST WISCONSIN

CITY           SKY/WX    TMP DP  RH WIND       PRES   REMARKS
SUPERIOR ARPT  SUNNY     80  66  62 SW10      29.86R HX  82
ASHLAND        SUNNY     78  64  61 SW10      29.88F HX  80
HAYWARD        SUNNY     76  64  66 S9        29.93S
SIREN          SUNNY     79  63  58 S12       29.92S HX  81
CUMBERLAND     SUNNY     73  63  68 S6        29.95F
RICE LAKE      SUNNY     75  65  69 S7        29.97S
CHETEK         SUNNY    N/A N/A N/A S8        29.96R
LADYSMITH      SUNNY     77  65  67 S9        29.98S
EAU CLAIRE     SUNNY     75  63  66 S12       29.96S
MENOMONIE      SUNNY     76  65  69 S8        29.96F
NEW RICHMOND   SUNNY     77  64  63 S9        29.95S
OSCEOLA        SUNNY     79  65  63 S8        29.96S HX  81
$$

WIZ003>005-009-010-017-018-310000-
NORTH CENTRAL WISCONSIN

CITY           SKY/WX    TMP DP  RH WIND       PRES   REMARKS
MANITOWISH WTR SUNNY     77  63  62 SW8       29.95F
ARBOR VITAE    SUNNY     77  64  65 SW9       29.96S
WOODRUFF       SUNNY     77  64  65 SW9       29.96S
RHINELANDER    SUNNY     75  63  66 SW10      29.99S
EAGLE RIVER    SUNNY     75  60  59 SW8       29.96S
LAND O LAKES   SUNNY     77  63  61 SW5       29.96F
PHILLIPS       SUNNY     76  64  66 S10       29.96F
TOMAHAWK       SUNNY     75  64  67 CALM      29.99S
MEDFORD        SUNNY     73  64  73 S12       30.00S
MERRILL        SUNNY     76  64  66 SW8       29.99S
$$

WIZ029-030-035-036-043>047-310000-
CENTRAL WISCONSIN

CITY           SKY/WX    TMP DP  RH WIND       PRES   REMARKS
WAUSAU         SUNNY     76  63  64 SW12      29.98S
MOSINEE        NOT AVBL
MARSHFIELD     SUNNY     76  62  62 SW9       29.99F
STEVENS POINT  SUNNY     74  62  67 SW9       30.00S
WAUPACA        SUNNY     77  64  65 S8        30.00S
WAUTOMA        NOT AVBL
WISC RAPIDS    SUNNY     75  63  66 S9        30.00F
CAMP DOUGLAS   SUNNY     74  71  90 SW7       29.99F
$$

WIZ011>013-019>022-031-037>040-048>050-310000-
NORTHEAST WISCONSIN

CITY           SKY/WX    TMP DP  RH WIND       PRES   REMARKS
ANTIGO         SUNNY     75  62  65 SW10      30.00S
SHAWANO        SUNNY     76  65  67 SW6       29.99S
OCONTO         SUNNY     74  65  74 SW7       29.97F
STURGEON BAY   SUNNY     73  63  68 SW9       30.00F
GREEN BAY      SUNNY     73  64  73 SW7       29.99F
MANITOWOC      NOT AVBL
APPLETON       SUNNY     72  63  73 S9        29.99F
CLINTONVILLE   SUNNY     73  63  68 SW10      29.99S
OSHKOSH        SUNNY     72  64  76 SW5       30.00F
$$

WIZ032>034-041-042-053>061-310000-
SOUTHWEST WISCONSIN

CITY           SKY/WX    TMP DP  RH WIND       PRES   REMARKS
LA CROSSE      MOSUNNY   75  65  70 S8        29.98F
SPARTA         SUNNY     74  62  66 S7        30.01F
VIROQUA          N/A     71  64  79 SW6       30.03F
BOSCOBEL       MOSUNNY   75  65  70 SW5       30.01F
PRAIRIE DU CHI MOSUNNY   74  62  66 S3        30.01F
PLATTEVILLE    SUNNY     73  67  80 S5        30.03S
$$

WIZ056-057-062-063-064-067-068-310000-
SOUTH CENTRAL WISCONSIN

CITY           SKY/WX    TMP DP  RH WIND       PRES   REMARKS
REEDSBURG      SUNNY     74  66  75 SW6       30.00F
BARABOO/DELLS  SUNNY     74  63  66 SW7       30.02S
LONE ROCK      NOT AVBL
MINERAL POINT  MOSUNNY   73  64  73 SW6       30.04S
MADISON        PTSUNNY   73  62  68 SW5       30.01F
MIDDLETON      SUNNY     75  63  64 SW6       30.02F
WATERTOWN      MOSUNNY   72  66  83 CALM      30.02F
MONROE         SUNNY     73  64  73 S3        30.04S
JANESVILLE     NOT AVBL
$$

WIZ051-052-058>065-066-070>072-310000-
SOUTHEAST WISCONSIN

CITY           SKY/WX    TMP DP  RH WIND       PRES   REMARKS
MILWAUKEE      CLOUDY    68  62  81 SE6       30.02S
WAUKESHA       MOSUNNY   72  63  73 W7        30.04S
MILWAUKEE/TIMM MOSUNNY   73  61  64 W5        30.03S
RACINE         SUNNY     68  62  81 S8        30.04F
BURLINGTON     MOSUNNY   72  62  71 SW6       30.03S
KENOSHA        MOSUNNY   70  64  81 SE5       30.03S
FOND DU LAC    SUNNY     72  64  76 S8        30.00F
SHEBOYGAN      SUNNY     68  63  84 SE5       30.01F
WEST BEND      SUNNY     72  61  68 W3        30.02F
JUNEAU         SUNNY     71  63  77 SW3       30.03F
$$

LSZ147-162-310000-
LAKE SUPERIOR

STATION/POSITION TIME  TEMP    WIND        PRES    WAVE
                       AIR SEA DIR/SP/G            HT/PER
                 (UTC) (F)     (DEG/KT/KT) (MB)    (FT/S)
W MID LAKE BUOY  2150   60 56  220/  6/  8 1010.8F   1
DEVILS ISLAND    2200   67     220/  9/ 12 1010.8F
PORT WING        2200   81     200/  7/ 12 1011.2
SAXON HARBOR     2200   82     200/  7/ 11 1011.2
$$

LMZ867-665-643>646-310000-
LAKE MICHIGAN

STATION/POSITION TIME  TEMP    WIND        PRES    WAVE
                       AIR SEA DIR/SP/G            HT/PER
                 (UTC) (F)     (DEG/KT/KT) (MB)    (FT/S)
CHAMBERS ISLAND  2200   71     180/  7/ 15 1014.9F
S GREEN BAY BUOY 2230   68 64  200/  8/ 12 1016.5F
N MID LAKE BUOY  2150   65 65  200/ 14/ 17 1014.9F   2/ 3
NORTHPORT PIER   2200   68     150/  6/ 10 1014.6F
SHEBOYGAN LAKESH 2200   63     180/ 15/ 15 1016.9F
PORT WASHINGTON  2200   65     200/  3/  6 1017.3
ATWATER BUOY     2200   58 51  190/  4/  4 1018.2F
MILWAUKEE LAKESH 2200   64      CALM  /  1   N/A
S MID LAKE BUOY  2150   67 69  330/  2/  4 1016.9F   1
KENOSHA   LAKESH 2200   65     150/  8/  9 1016.6F
$$

TC  - TEMPERATURE IN CELSIUS
VSB - VISIBILITY IN STATUTE MILES
WCI - WIND CHILL INDEX
HX  - HEAT INDEX




USA.gov is the U.S. government's official web portal to all federal, state and local government web resources and services.